THORAD AGENA D DEB, 14467

Orbit data source: Space-Track

THORAD AGENA D DEB, 14467 is space debris in SSO originally from a launch on Wed, 08 Apr 1970 UTC launched from the Air Force Western Test Range (AFWTR). Debris objects in space refer to the collection of defunct objects orbiting the Earth. Examples of debris include non-operational satellites, rocket bodies, and fragments generated from explosions, collisions, or faulty payload assembly.

Loading next visibility...
Identifier
14467, 1970-025NT
Orbit
SSO
Country
Flag of USUS
Related business
Manufacturer
Unknown
Mission
Spacecraft
Bus & Motor
Unknown
Mass
Unknown
Launch date (UTC)
1970-04-08 (56 years ago)
Launch vehicle
Unknown
Launch site
Air Force Western Test Range (AFWTR)
Object type
Payload
Rocket body
Debris
Shape & HBR
Unknown shape, 0.1 m
Radar Cross Section
Small (<0.1 m²)

Expand to show TLE details & history
Last TLE update: 22 hours ago

TLE from 22 hours ago
0 THORAD AGENA D DEB
1 14467U 70025NT  26256.52704955  .00000178  00000-0  28027-3 0  9992
2 14467 100.0273 140.6328 0002116 100.8178  19.2714 13.64621598173848
Epoch: 2026-09-13T12:38Z
TLE epoch observation values (Epoch: 2026-09-13T12:38:57.081Z)
Latitude
58.52215°
Longitude
155.07089°
Altitude
1,027.257 km
Speed
7.344 km/s
True Right ascension
22h 29m 18s
True Declination
58° 22' 28"
Sunlit
Object was in daylight at epoch
Visualization orbit readout
Latitude
Unknown
Longitude
Unknown
Altitude
Unknown
Speed
Unknown
Apparent Right ascension
Unknown
Apparent Declination
Unknown
Sunlit
N/A
Visualization observer readout
Local Sidereal Time
03:09:48
Azimuth
Unknown
Elevation
Unknown
Doppler factor
Unknown
Orbital elements
Apogee altitude
1,017.807 km
Perigee altitude
1,014.678 km
Semi-major axis
7,394.38 km
Eccentricity
0.00021
Inclination
100.0273°
RAAN
140.6328°
Arg. of periapsis
100.8178°
True anomaly
19.2794°
Mean anomaly
19.2714°
Eccentric anomaly
19.2754°
Mean motion
3.41343 °/min
Orbital period
105.47 mins
BSTAR
0.00028027
Loading maneuver chart data...
Computing Atmospheric mass density...

Documentation

Showing up to 5 results
|